Regional Weather Roundup
Issued by NWS Cleveland, OH

Home | Current Version | Previous Version | Text Only | Print | Product List | Glossary Off
Versions: 1 2 3 4 5 6 7 8 9 10 11 12 13 14 15 16 17 18 19 20 21 22 23 24 25 26 27 28 29 30 31 32 33 34 35 36 37 38 39 40 41 42 43 44 45 46 47 48 49 50

000
ASUS41 KCLE 021202
RWRCLE
OHIO REGIONAL WEATHER ROUNDUP
NATIONAL WEATHER SERVICE CLEVELAND, OH
800 AM EDT THU JUL 02 2015

NOTE: "FAIR" INDICATES FEW OR NO CLOUDS BELOW 12,000 FEET WITH NO
SIGNIFICANT WEATHER AND/OR OBSTRUCTIONS TO VISIBILITY.

OHZ001>008-015>018-024>027-034-035-043-044-021300-
   NORTHWEST OHIO

CITY           SKY/WX    TMP DP  RH WIND       PRES   REMARKS
DEFIANCE       CLOUDY    61  58  90 NE8       29.97R FOG
FINDLAY        CLOUDY    64  60  87 NE12      29.95R
TOLEDO EXPRESS PTSUNNY   61  58  90 NE8       29.97R
TOLEDO EXEC    CLOUDY    64  58  80 NE7       29.98R
LIMA           CLOUDY    63  61  93 NE7       29.94R FOG
$$

OHZ009>014-019>023-028>033-038-089-021300-
   NORTHEAST OHIO

CITY           SKY/WX    TMP DP  RH WIND       PRES   REMARKS
CLE-HOPKINS    CLOUDY    64  60  87 NE10      29.98R
CLE-LAKEFRONT  CLOUDY    66  58  75 NE13      29.95S
CUY CO. ARPT   PTSUNNY   64  63  94 NE7       29.97S
LORAIN-ELYRIA  PTSUNNY   63  60  90 NE10      29.96S
ASHTABULA      PTSUNNY   61  59  93 NE3       29.97S
AKRON-CANTON   PTSUNNY   63  59  87 NE6       29.96R FOG
WOOSTER        PTSUNNY   63  61  93 CALM      29.97R FOG
MANSFIELD      CLOUDY    61  61 100 NE7       29.97R FOG
YOUNGSTOWN     MOSUNNY   63  59  87 VRB3      29.95S
$$

OHZ042-051>053-060>062-070>072-077>081-021300-
  SOUTHWEST OHIO

CITY           SKY/WX    TMP DP  RH WIND       PRES   REMARKS
CINC-COVINGTON CLOUDY    69  67  93 S5        29.89S FOG
CINC-LUNKEN    CLOUDY    68  67  96 CALM      29.89S FOG
HAMILTON       CLOUDY    68  64  87 CALM      29.90S
DAYTON         CLOUDY    66  61  84 NE5       29.92S
WRIGHT-PAT AFB CLOUDY    65  61  86 NE5       29.90F
DAYTON GENERAL CLOUDY    66  61  84 E6        29.89F
WILMINGTON     CLOUDY    65  62  90 SE5       29.91S FOG
$$

OHZ036-037-039>041-045>050-054>059-063>069-073>076-082>088-021300-
  CENTRAL AND SOUTHEAST OHIO

CITY           SKY/WX    TMP DP  RH WIND       PRES   REMARKS
COLUMBUS       CLOUDY    65  58  78 E6        29.92S
OSU AIRPORT    CLOUDY    64  61  90 CALM      29.93R
BOLTON FIELD   MOSUNNY   64  61  88 NE3       29.92
RICKENBACK AFB NOT AVBL
NEWARK         PTSUNNY   62  59  90 CALM      29.93S
MARION         CLOUDY    62  59  90 E5        29.95R FOG
LANCASTER      PTSUNNY   63  60  90 W3        29.94R FOG
ZANESVILLE     NOT AVBL
NEW PHILLY     MOSUNNY   59  58  96 CALM      29.96R FOG
$$



USA.gov is the U.S. government's official web portal to all federal, state and local government web resources and services.